TimeEST,TemperatureF,Dew PointF,Humidity,Sea Level PressureIn,VisibilityMPH,Wind Direction,Wind SpeedMPH,Gust SpeedMPH,PrecipitationIn,Events,Conditions,WindDirDegrees,DateUTC
12:56 AM,28.0,25.0,88,30.26,9.0,North,8.1,-,0.00,,Overcast,350,2013-03-08 05:56:00
1:56 AM,28.0,25.0,88,30.27,10.0,NNW,5.8,-,N/A,,Overcast,340,2013-03-08 06:56:00
2:56 AM,28.9,23.0,78,30.26,10.0,North,5.8,-,0.00,,Overcast,360,2013-03-08 07:56:00
3:56 AM,30.0,23.0,75,30.27,10.0,North,3.5,-,N/A,,Overcast,10,2013-03-08 08:56:00
4:56 AM,28.9,23.0,78,30.28,10.0,North,3.5,-,N/A,,Overcast,350,2013-03-08 09:56:00
5:56 AM,28.9,23.0,78,30.29,10.0,NNW,3.5,-,N/A,,Overcast,340,2013-03-08 10:56:00
6:56 AM,27.0,21.9,81,30.31,10.0,North,3.5,-,N/A,,Mostly Cloudy,350,2013-03-08 11:56:00
7:56 AM,30.0,23.0,75,30.32,10.0,North,8.1,-,N/A,,Overcast,350,2013-03-08 12:56:00
8:56 AM,30.9,21.9,69,30.34,10.0,North,10.4,-,N/A,,Clear,360,2013-03-08 13:56:00
9:56 AM,34.0,23.0,64,30.35,10.0,NNE,16.1,-,N/A,,Clear,30,2013-03-08 14:56:00
10:56 AM,36.0,23.0,59,30.35,10.0,North,13.8,-,N/A,,Partly Cloudy,360,2013-03-08 15:56:00
11:56 AM,36.0,23.0,59,30.35,10.0,North,15.0,23.0,N/A,,Clear,360,2013-03-08 16:56:00
12:56 PM,37.9,23.0,55,30.34,10.0,NNE,11.5,-,N/A,,Clear,20,2013-03-08 17:56:00
1:56 PM,39.0,23.0,53,30.33,10.0,North,11.5,-,N/A,,Clear,10,2013-03-08 18:56:00
2:56 PM,39.9,23.0,51,30.33,10.0,NNW,12.7,-,N/A,,Clear,340,2013-03-08 19:56:00
3:56 PM,39.9,23.0,51,30.33,10.0,North,10.4,-,N/A,,Clear,350,2013-03-08 20:56:00
4:56 PM,39.9,21.9,49,30.35,10.0,NNE,9.2,-,N/A,,Clear,20,2013-03-08 21:56:00
5:56 PM,37.9,21.9,53,30.37,10.0,North,3.5,-,N/A,,Clear,350,2013-03-08 22:56:00
6:56 PM,30.9,21.9,69,30.39,10.0,Calm,Calm,-,N/A,,Clear,0,2013-03-08 23:56:00
7:56 PM,26.1,21.9,84,30.39,10.0,East,3.5,-,N/A,,Clear,90,2013-03-09 00:56:00
8:56 PM,25.0,21.9,88,30.39,10.0,ESE,3.5,-,N/A,,Clear,110,2013-03-09 01:56:00
9:56 PM,23.0,19.9,88,30.40,10.0,Calm,Calm,-,N/A,,Clear,0,2013-03-09 02:56:00
10:56 PM,21.0,19.0,92,30.39,10.0,Calm,Calm,-,N/A,,Clear,0,2013-03-09 03:56:00
11:56 PM,21.0,18.0,88,30.38,10.0,Calm,Calm,-,N/A,,Clear,0,2013-03-09 04:56:00